Weather in Rodino

Russia / Altai Krai     52°29′46″N   80°12′37″E
temp.,
°C
wind,
m/s
gust,
m/s
humid.,
%
clouds,
%
prec.,
mm/h
press.,
hPa
HPBL,
m
26 february, fri
fri2601:00−22sw81493100 0.1 10261231
04:00−24sw71391100 0.1 1028552
07:00−22sw7139599 0.2 1032720
10:00−22sw71293100 0.1 1034709
13:00−22sw71190100 0.1 1036896
16:00−21sw71187100 0.1 1036841
19:00−23sw51092100 0.1 1038530
22:00−24sw5109499 0.0 1039310
27 february, sat
sat2701:00−28ssw479689 0.1 1039110
04:00−29ssw459632 0.0 103970
07:00−29ssw349616 0.0 103936
10:00−28ssw369413 0.0 1039123
13:00−24ssw469011 0.0 1039278
16:00−21ssw47873 0.0 1038432
19:00−24ssw23912 0.0 103820
22:00−25sse34940 0.0 103941
28 february, sun
sun2801:00−25s459014 0.0 103870
04:00−25sse46860 0.0 103781
07:00−23sse478721 0.0 1036110
10:00−18sse61283100 0.0 1033283
13:00−12s7137998 0.0 1030501
16:00−9s81484100 0.0 1026782
19:00−7s91688100 0.3 1022830
22:00−7s111791100 0.6 1019787
1 march, mon
mon101:00−4s111993100 2.1 1016723
04:00−3ssw121993100 1.9 1014855
07:00−2ssw111895100 4.4 1013844
10:00−1ssw111795100 2.3 1013790
13:000ssw111698100 4.2 1013778
16:00+1sw91599100 1.7 1013629
19:00+1sw71299100 3.4 1013487
22:00+1sw81398100 0.9 1013644
2 march, tue
tue201:000sw91597100 1.0 1013830
04:00−3wsw61488100 0.4 1013488
07:00−4wsw61096100 0.6 1015344
10:00−6sw61095100 0.5 1016364
13:00−6wsw5794100 0.8 1017439
16:00−5w4693100 0.1 1017471
19:00−10wnw2397100 0.1 101742
22:00−13wnw2397100 0.0 101729